Time,TemperatureF,DewpointF,PressureIn,WindDirection,WindDirectionDegrees,WindSpeedMPH,WindSpeedGustMPH,Humidity,HourlyPrecipIn,Conditions,Clouds,dailyrainin,SoftwareType,DateUTC
2013-01-07 00:00:00,38.9,36.2,30.20,NW,315,0.0,0.0,90,0.00,,,0.00,WUHU216HW,2013-01-07 08:00:00,
2013-01-07 00:05:00,38.9,36.2,30.20,NW,315,0.0,0.0,90,0.00,,,0.00,WUHU216HW,2013-01-07 08:05:00,
2013-01-07 00:10:00,38.9,36.2,30.20,NW,315,0.0,0.0,90,0.00,,,0.00,WUHU216HW,2013-01-07 08:10:00,
2013-01-07 00:15:00,38.9,36.2,30.19,NNW,338,0.2,0.2,90,0.00,,,0.00,WUHU216HW,2013-01-07 08:15:00,
2013-01-07 00:20:00,38.9,36.2,30.19,NNW,338,0.0,0.2,90,0.00,,,0.00,WUHU216HW,2013-01-07 08:20:00,
2013-01-07 00:25:00,38.9,36.2,30.19,NNW,338,0.0,0.0,90,0.00,,,0.00,WUHU216HW,2013-01-07 08:25:00,
2013-01-07 00:30:00,38.9,36.2,30.19,NNW,338,0.0,0.0,90,0.00,,,0.00,WUHU216HW,2013-01-07 08:30:00,
2013-01-07 00:35:00,38.7,36.0,30.19,NNW,338,0.0,0.0,90,0.00,,,0.00,WUHU216HW,2013-01-07 08:35:00,
2013-01-07 00:40:00,38.7,36.0,30.19,NNW,338,0.0,0.0,90,0.00,,,0.00,WUHU216HW,2013-01-07 08:40:00,
2013-01-07 00:45:00,38.5,35.8,30.19,NNW,338,0.0,0.0,90,0.00,,,0.00,WUHU216HW,2013-01-07 08:45:00,
2013-01-07 00:50:00,38.5,35.8,30.19,NNW,338,0.0,0.0,90,0.00,,,0.00,WUHU216HW,2013-01-07 08:50:00,
2013-01-07 00:55:00,38.5,35.8,30.19,NNW,338,0.0,0.0,90,0.00,,,0.00,WUHU216HW,2013-01-07 08:55:00,
2013-01-07 01:00:00,38.5,35.8,30.19,NNW,338,0.0,0.0,90,0.00,,,0.00,WUHU216HW,2013-01-07 09:00:00,
2013-01-07 01:06:00,38.3,35.6,30.20,NNW,338,0.0,0.0,90,0.00,,,0.00,WUHU216HW,2013-01-07 09:06:00,
2013-01-07 01:11:00,38.3,35.6,30.19,NNW,338,0.0,0.0,90,0.00,,,0.00,WUHU216HW,2013-01-07 09:11:00,
2013-01-07 01:16:00,38.3,35.6,30.19,NNW,338,0.0,0.0,90,0.00,,,0.00,WUHU216HW,2013-01-07 09:16:00,
2013-01-07 01:21:00,38.3,35.6,30.19,NNW,338,0.0,0.0,90,0.00,,,0.00,WUHU216HW,2013-01-07 09:21:00,
2013-01-07 01:26:00,38.3,35.6,30.19,NNW,338,0.0,0.4,90,0.00,,,0.00,WUHU216HW,2013-01-07 09:26:00,
2013-01-07 01:31:00,38.3,35.6,30.19,NW,315,0.2,0.4,90,0.00,,,0.00,WUHU216HW,2013-01-07 09:31:00,
2013-01-07 01:36:00,38.5,35.8,30.19,NW,315,0.0,0.4,90,0.00,,,0.00,WUHU216HW,2013-01-07 09:36:00,
2013-01-07 01:41:00,38.5,35.8,30.19,NW,315,0.0,0.4,90,0.00,,,0.00,WUHU216HW,2013-01-07 09:41:00,
2013-01-07 01:46:00,38.5,36.1,30.19,NW,315,0.0,0.4,91,0.00,,,0.00,WUHU216HW,2013-01-07 09:46:00,
2013-01-07 01:51:00,38.5,36.1,30.19,NW,315,0.0,0.0,91,0.00,,,0.00,WUHU216HW,2013-01-07 09:51:00,
2013-01-07 01:56:00,38.5,36.1,30.19,NW,315,0.4,0.4,91,0.00,,,0.00,WUHU216HW,2013-01-07 09:56:00,
2013-01-07 02:01:00,38.5,36.1,30.19,NW,315,0.9,0.9,91,0.00,,,0.00,WUHU216HW,2013-01-07 10:01:00,
2013-01-07 02:06:00,38.9,36.2,30.19,WNW,293,1.3,1.3,90,0.00,,,0.00,WUHU216HW,2013-01-07 10:06:00,
2013-01-07 02:11:00,39.1,36.6,30.19,NW,315,0.4,1.3,91,0.00,,,0.00,WUHU216HW,2013-01-07 10:11:00,
2013-01-07 02:16:00,39.2,36.8,30.19,NW,315,0.0,1.1,91,0.00,,,0.00,WUHU216HW,2013-01-07 10:16:00,
2013-01-07 02:21:00,39.2,36.8,30.19,ENE,68,0.0,0.4,91,0.00,,,0.00,WUHU216HW,2013-01-07 10:21:00,
2013-01-07 02:27:00,39.2,36.8,30.19,North,0,0.0,0.2,91,0.00,,,0.00,WUHU216HW,2013-01-07 10:27:00,
2013-01-07 02:32:00,39.4,37.0,30.19,NNE,23,0.0,0.2,91,0.00,,,0.00,WUHU216HW,2013-01-07 10:32:00,
2013-01-07 02:37:00,39.4,37.3,30.20,NE,45,0.0,0.4,92,0.00,,,0.00,WUHU216HW,2013-01-07 10:37:00,
2013-01-07 02:42:00,39.6,37.4,30.20,NE,45,0.0,0.4,92,0.00,,,0.00,WUHU216HW,2013-01-07 10:42:00,
2013-01-07 02:47:00,39.6,37.4,30.20,NW,315,0.4,1.1,92,0.00,,,0.00,WUHU216HW,2013-01-07 10:47:00,
2013-01-07 02:52:00,39.8,37.6,30.21,NW,315,0.4,1.6,92,0.00,,,0.00,WUHU216HW,2013-01-07 10:52:00,
2013-01-07 02:57:00,39.8,37.6,30.21,NNW,338,0.0,1.3,92,0.00,,,0.00,WUHU216HW,2013-01-07 10:57:00,
2013-01-07 03:02:00,39.8,37.6,30.20,North,0,0.0,0.9,92,0.00,,,0.00,WUHU216HW,2013-01-07 11:02:00,
2013-01-07 03:07:00,40.0,37.8,30.20,North,0,0.0,0.9,92,0.00,,,0.00,WUHU216HW,2013-01-07 11:07:00,
2013-01-07 03:12:00,40.0,37.8,30.21,NNE,23,0.9,0.9,92,0.00,,,0.00,WUHU216HW,2013-01-07 11:12:00,
2013-01-07 03:17:00,40.1,38.0,30.21,NW,315,1.1,3.4,92,0.00,,,0.00,WUHU216HW,2013-01-07 11:17:00,
2013-01-07 03:23:00,40.3,38.2,30.21,NW,315,0.0,3.4,92,0.01,,,0.00,WUHU216HW,2013-01-07 11:23:00,
2013-01-07 03:28:00,40.5,38.3,30.20,NNW,338,1.8,2.7,92,0.01,,,0.02,WUHU216HW,2013-01-07 11:28:00,
2013-01-07 03:33:00,40.7,38.8,30.21,NNW,338,0.9,2.7,93,0.01,,,0.02,WUHU216HW,2013-01-07 11:33:00,
2013-01-07 03:38:00,40.7,38.8,30.21,NNW,338,0.9,1.8,93,0.01,,,0.02,WUHU216HW,2013-01-07 11:38:00,
2013-01-07 03:43:00,40.7,38.8,30.21,NW,315,1.8,1.8,93,0.01,,,0.02,WUHU216HW,2013-01-07 11:43:00,
2013-01-07 03:48:00,40.9,39.0,30.21,NNW,338,0.9,4.0,93,0.01,,,0.02,WUHU216HW,2013-01-07 11:48:00,
2013-01-07 03:53:00,40.9,39.0,30.21,WNW,293,0.9,4.0,93,0.01,,,0.02,WUHU216HW,2013-01-07 11:53:00,
2013-01-07 03:58:00,40.9,39.0,30.21,WNW,293,1.6,2.5,93,0.01,,,0.02,WUHU216HW,2013-01-07 11:58:00,
2013-01-07 04:03:00,40.7,38.8,30.21,North,0,1.6,2.5,93,0.01,,,0.02,WUHU216HW,2013-01-07 12:03:00,
2013-01-07 04:08:00,40.7,38.8,30.21,NNW,338,0.7,2.0,93,0.01,,,0.02,WUHU216HW,2013-01-07 12:08:00,
2013-01-07 04:13:00,40.7,38.8,30.21,NW,315,0.4,2.0,93,0.01,,,0.02,WUHU216HW,2013-01-07 12:13:00,
2013-01-07 04:18:00,40.7,38.8,30.20,NW,315,0.9,2.0,93,0.01,,,0.02,WUHU216HW,2013-01-07 12:18:00,
2013-01-07 04:23:00,40.7,38.8,30.21,NNW,338,0.9,2.7,93,0.00,,,0.02,WUHU216HW,2013-01-07 12:23:00,
2013-01-07 04:28:00,40.7,38.8,30.21,NW,315,1.1,2.7,93,0.00,,,0.02,WUHU216HW,2013-01-07 12:28:00,
2013-01-07 04:33:00,40.7,38.8,30.20,NW,315,0.7,2.2,93,0.00,,,0.02,WUHU216HW,2013-01-07 12:33:00,
2013-01-07 04:38:00,40.7,38.8,30.20,NW,315,2.5,3.4,93,0.00,,,0.02,WUHU216HW,2013-01-07 12:38:00,
2013-01-07 04:43:00,40.7,38.8,30.20,WNW,293,1.3,3.4,93,0.00,,,0.02,WUHU216HW,2013-01-07 12:43:00,
2013-01-07 04:48:00,40.5,38.6,30.21,WNW,293,0.9,2.5,93,0.00,,,0.02,WUHU216HW,2013-01-07 12:48:00,
2013-01-07 04:53:00,40.5,38.6,30.21,NNW,338,0.9,2.5,93,0.00,,,0.02,WUHU216HW,2013-01-07 12:53:00,
2013-01-07 04:58:00,40.3,38.4,30.20,NW,315,1.1,2.5,93,0.00,,,0.02,WUHU216HW,2013-01-07 12:58:00,
2013-01-07 05:03:00,40.3,38.4,30.20,NNW,338,0.4,2.5,93,0.00,,,0.02,WUHU216HW,2013-01-07 13:03:00,
2013-01-07 05:09:00,40.3,38.4,30.20,NW,315,0.4,1.6,93,0.00,,,0.02,WUHU216HW,2013-01-07 13:09:00,
2013-01-07 05:14:00,40.3,38.4,30.20,North,0,0.4,1.1,93,0.00,,,0.02,WUHU216HW,2013-01-07 13:14:00,
2013-01-07 05:19:00,40.1,38.3,30.21,North,0,0.4,1.1,93,0.00,,,0.02,WUHU216HW,2013-01-07 13:19:00,
2013-01-07 05:24:00,40.1,38.3,30.21,NNW,338,0.2,0.9,93,0.00,,,0.02,WUHU216HW,2013-01-07 13:24:00,
2013-01-07 05:29:00,40.1,38.3,30.21,ENE,68,0.0,0.9,93,0.00,,,0.02,WUHU216HW,2013-01-07 13:29:00,
2013-01-07 05:34:00,40.0,38.1,30.21,NNW,338,0.4,1.1,93,0.00,,,0.02,WUHU216HW,2013-01-07 13:34:00,
2013-01-07 05:39:00,40.0,38.1,30.21,NNW,338,0.4,1.1,93,0.00,,,0.02,WUHU216HW,2013-01-07 13:39:00,
2013-01-07 05:44:00,40.0,38.1,30.21,NNW,338,0.2,0.4,93,0.00,,,0.02,WUHU216HW,2013-01-07 13:44:00,
2013-01-07 05:49:00,40.0,38.1,30.21,WNW,293,0.0,0.4,93,0.00,,,0.02,WUHU216HW,2013-01-07 13:49:00,
2013-01-07 05:54:00,40.0,38.1,30.21,NE,45,0.0,0.4,93,0.00,,,0.02,WUHU216HW,2013-01-07 13:54:00,
2013-01-07 05:59:00,40.0,38.1,30.21,NNW,338,0.2,0.4,93,0.00,,,0.02,WUHU216HW,2013-01-07 13:59:00,
2013-01-07 06:04:00,39.8,37.9,30.21,NW,315,0.0,0.7,93,0.00,,,0.02,WUHU216HW,2013-01-07 14:04:00,
2013-01-07 06:09:00,39.8,37.6,30.21,NW,315,0.0,0.7,92,0.00,,,0.02,WUHU216HW,2013-01-07 14:09:00,
2013-01-07 06:15:00,39.6,37.4,30.21,NW,315,0.2,0.4,92,0.00,,,0.02,WUHU216HW,2013-01-07 14:15:00,
2013-01-07 06:20:00,39.6,37.4,30.22,NW,315,0.0,0.4,92,0.00,,,0.02,WUHU216HW,2013-01-07 14:20:00,
2013-01-07 06:25:00,39.4,37.3,30.22,NW,315,0.4,0.9,92,0.00,,,0.02,WUHU216HW,2013-01-07 14:25:00,
2013-01-07 06:30:00,39.4,37.3,30.22,NW,315,0.0,0.9,92,0.00,,,0.02,WUHU216HW,2013-01-07 14:30:00,
2013-01-07 06:35:00,39.2,37.1,30.22,NE,45,0.0,0.4,92,0.00,,,0.02,WUHU216HW,2013-01-07 14:35:00,
2013-01-07 06:40:00,39.2,37.1,30.22,NNW,338,0.2,0.2,92,0.00,,,0.02,WUHU216HW,2013-01-07 14:40:00,
2013-01-07 06:45:00,39.2,37.1,30.22,NW,315,0.0,0.9,92,0.00,,,0.02,WUHU216HW,2013-01-07 14:45:00,
2013-01-07 06:50:00,39.2,37.1,30.22,NW,315,0.0,0.9,92,0.00,,,0.02,WUHU216HW,2013-01-07 14:50:00,
2013-01-07 06:55:00,39.1,36.9,30.22,ENE,68,0.0,0.2,92,0.00,,,0.02,WUHU216HW,2013-01-07 14:55:00,
2013-01-07 07:00:00,39.1,36.9,30.23,ENE,68,0.0,0.2,92,0.00,,,0.02,WUHU216HW,2013-01-07 15:00:00,
2013-01-07 07:05:00,38.9,36.5,30.23,ENE,68,0.0,0.2,91,0.00,,,0.02,WUHU216HW,2013-01-07 15:05:00,
2013-01-07 07:10:00,38.9,36.5,30.24,ENE,68,0.0,0.0,91,0.00,,,0.02,WUHU216HW,2013-01-07 15:10:00,
2013-01-07 07:15:00,38.9,36.5,30.24,ENE,68,0.0,0.0,91,0.00,,,0.02,WUHU216HW,2013-01-07 15:15:00,
2013-01-07 07:20:00,38.9,36.5,30.24,ENE,68,0.0,0.0,91,0.00,,,0.02,WUHU216HW,2013-01-07 15:20:00,
2013-01-07 07:25:00,38.9,36.7,30.24,ENE,68,0.2,0.2,92,0.00,,,0.02,WUHU216HW,2013-01-07 15:25:00,
2013-01-07 07:30:00,38.9,37.0,30.24,ESE,113,0.0,0.7,93,0.00,,,0.02,WUHU216HW,2013-01-07 15:30:00,
2013-01-07 07:35:00,39.1,37.2,30.24,ESE,113,0.0,0.7,93,0.00,,,0.02,WUHU216HW,2013-01-07 15:35:00,
2013-01-07 07:40:00,39.1,37.2,30.25,ESE,113,0.0,0.0,93,0.00,,,0.02,WUHU216HW,2013-01-07 15:40:00,
2013-01-07 07:45:00,39.2,37.4,30.25,ESE,113,0.0,0.0,93,0.00,,,0.02,WUHU216HW,2013-01-07 15:45:00,
2013-01-07 07:51:00,39.2,37.4,30.25,ESE,113,0.0,0.0,93,0.00,,,0.02,WUHU216HW,2013-01-07 15:51:00,
2013-01-07 07:56:00,39.2,37.4,30.25,ESE,113,0.0,0.0,93,0.00,,,0.02,WUHU216HW,2013-01-07 15:56:00,
2013-01-07 08:01:00,39.4,37.5,30.25,ESE,113,0.0,0.0,93,0.00,,,0.02,WUHU216HW,2013-01-07 16:01:00,
2013-01-07 08:06:00,39.6,37.7,30.26,ESE,113,0.0,0.4,93,0.00,,,0.02,WUHU216HW,2013-01-07 16:06:00,
2013-01-07 08:11:00,39.8,37.9,30.26,ESE,113,0.0,0.4,93,0.00,,,0.02,WUHU216HW,2013-01-07 16:11:00,
2013-01-07 08:16:00,40.0,38.1,30.26,South,180,0.0,0.4,93,0.00,,,0.02,WUHU216HW,2013-01-07 16:16:00,
2013-01-07 08:21:00,40.0,38.1,30.25,South,180,0.2,0.4,93,0.00,,,0.02,WUHU216HW,2013-01-07 16:21:00,
2013-01-07 08:26:00,40.1,38.3,30.25,SE,135,0.2,0.4,93,0.00,,,0.02,WUHU216HW,2013-01-07 16:26:00,
2013-01-07 08:31:00,40.3,38.4,30.25,East,90,0.0,0.4,93,0.00,,,0.02,WUHU216HW,2013-01-07 16:31:00,
2013-01-07 08:36:00,40.5,38.6,30.25,ESE,113,1.1,1.1,93,0.00,,,0.02,WUHU216HW,2013-01-07 16:36:00,
2013-01-07 08:41:00,40.7,38.8,30.25,SE,135,0.0,1.1,93,0.00,,,0.02,WUHU216HW,2013-01-07 16:41:00,
2013-01-07 08:46:00,40.9,39.0,30.25,SE,135,0.2,0.4,93,0.00,,,0.02,WUHU216HW,2013-01-07 16:46:00,
2013-01-07 08:51:00,41.0,39.2,30.26,ESE,113,1.1,2.2,93,0.00,,,0.02,WUHU216HW,2013-01-07 16:51:00,
2013-01-07 08:56:00,41.2,39.3,30.25,SE,135,0.0,2.2,93,0.00,,,0.02,WUHU216HW,2013-01-07 16:56:00,
2013-01-07 09:01:00,41.4,39.5,30.27,NW,315,0.2,0.4,93,0.00,,,0.02,WUHU216HW,2013-01-07 17:01:00,
2013-01-07 09:07:00,41.4,39.5,30.29,SE,135,0.0,0.4,93,0.00,,,0.02,WUHU216HW,2013-01-07 17:07:00,
2013-01-07 09:12:00,41.4,39.5,30.29,SE,135,0.4,0.4,93,0.00,,,0.02,WUHU216HW,2013-01-07 17:12:00,
2013-01-07 09:17:00,41.4,39.2,30.29,SE,135,0.2,0.4,92,0.00,,,0.02,WUHU216HW,2013-01-07 17:17:00,
2013-01-07 09:22:00,41.4,39.2,30.29,SE,135,0.7,1.1,92,0.00,,,0.02,WUHU216HW,2013-01-07 17:22:00,
2013-01-07 09:27:00,41.6,39.4,30.29,SE,135,1.1,1.1,92,0.00,,,0.02,WUHU216HW,2013-01-07 17:27:00,
2013-01-07 09:32:00,41.8,39.6,30.29,SE,135,0.4,1.1,92,0.00,,,0.02,WUHU216HW,2013-01-07 17:32:00,
2013-01-07 09:37:00,41.9,39.8,30.29,SE,135,0.4,1.3,92,0.00,,,0.02,WUHU216HW,2013-01-07 17:37:00,
2013-01-07 09:42:00,42.3,40.1,30.30,SSE,158,0.4,1.3,92,0.00,,,0.02,WUHU216HW,2013-01-07 17:42:00,
2013-01-07 09:47:00,42.3,40.1,30.30,SE,135,0.2,1.1,92,0.00,,,0.02,WUHU216HW,2013-01-07 17:47:00,
2013-01-07 09:52:00,42.5,40.1,30.31,WNW,293,0.0,0.7,91,0.00,,,0.02,WUHU216HW,2013-01-07 17:52:00,
2013-01-07 09:57:00,42.7,40.2,30.30,SE,135,0.9,1.1,91,0.00,,,0.02,WUHU216HW,2013-01-07 17:57:00,
2013-01-07 10:02:00,42.8,40.4,30.30,SSE,158,1.1,1.1,91,0.00,,,0.02,WUHU216HW,2013-01-07 18:02:00,
2013-01-07 10:07:00,43.2,40.8,30.31,SW,225,1.3,1.3,91,0.00,,,0.02,WUHU216HW,2013-01-07 18:07:00,
2013-01-07 10:12:00,43.4,41.0,30.31,SE,135,0.2,1.3,91,0.00,,,0.02,WUHU216HW,2013-01-07 18:12:00,
2013-01-07 10:17:00,43.4,41.0,30.30,SSE,158,0.2,1.3,91,0.00,,,0.02,WUHU216HW,2013-01-07 18:17:00,
2013-01-07 10:23:00,43.7,41.0,30.30,SSE,158,0.7,2.2,90,0.00,,,0.02,WUHU216HW,2013-01-07 18:23:00,
2013-01-07 10:28:00,43.9,41.2,30.30,SSW,203,1.1,2.9,90,0.00,,,0.02,WUHU216HW,2013-01-07 18:28:00,
2013-01-07 10:33:00,44.1,41.4,30.31,SSE,158,0.0,2.9,90,0.00,,,0.02,WUHU216HW,2013-01-07 18:33:00,
2013-01-07 10:38:00,44.3,41.6,30.31,SE,135,2.7,2.7,90,0.00,,,0.02,WUHU216HW,2013-01-07 18:38:00,
2013-01-07 10:43:00,44.5,41.8,30.31,SW,225,1.1,2.7,90,0.00,,,0.02,WUHU216HW,2013-01-07 18:43:00,
2013-01-07 10:48:00,44.6,42.2,30.31,ESE,113,0.4,1.1,91,0.00,,,0.02,WUHU216HW,2013-01-07 18:48:00,
2013-01-07 10:53:00,44.6,41.9,30.31,East,90,0.7,0.7,90,0.00,,,0.02,WUHU216HW,2013-01-07 18:53:00,
2013-01-07 10:58:00,44.6,41.9,30.31,SE,135,0.0,1.3,90,0.00,,,0.02,WUHU216HW,2013-01-07 18:58:00,
2013-01-07 11:03:00,45.0,42.3,30.31,SSE,158,0.2,1.3,90,0.00,,,0.02,WUHU216HW,2013-01-07 19:03:00,
2013-01-07 11:08:00,45.4,42.7,30.30,SE,135,0.4,0.9,90,0.00,,,0.02,WUHU216HW,2013-01-07 19:08:00,
2013-01-07 11:13:00,45.4,42.7,30.30,SE,135,0.2,0.7,90,0.00,,,0.02,WUHU216HW,2013-01-07 19:13:00,
2013-01-07 11:18:00,45.2,41.9,30.29,SSE,158,0.2,1.1,88,0.00,,,0.02,WUHU216HW,2013-01-07 19:18:00,
2013-01-07 11:24:00,45.2,41.9,30.29,NNE,23,0.7,1.8,88,0.00,,,0.02,WUHU216HW,2013-01-07 19:24:00,
2013-01-07 11:29:00,45.0,41.7,30.29,ESE,113,1.3,1.8,88,0.00,,,0.02,WUHU216HW,2013-01-07 19:29:00,
2013-01-07 11:34:00,45.2,42.2,30.29,South,180,0.7,1.8,89,0.00,,,0.02,WUHU216HW,2013-01-07 19:34:00,
2013-01-07 11:39:00,45.5,42.2,30.28,South,180,0.4,1.6,88,0.00,,,0.02,WUHU216HW,2013-01-07 19:39:00,
2013-01-07 11:44:00,45.7,42.4,30.28,SE,135,0.2,2.5,88,0.00,,,0.02,WUHU216HW,2013-01-07 19:44:00,
2013-01-07 11:49:00,45.9,42.6,30.28,SE,135,0.9,2.5,88,0.00,,,0.02,WUHU216HW,2013-01-07 19:49:00,
2013-01-07 11:54:00,46.1,42.5,30.28,SW,225,0.7,3.6,87,0.00,,,0.02,WUHU216HW,2013-01-07 19:54:00,
2013-01-07 11:59:00,46.1,42.5,30.28,ENE,68,0.4,3.6,87,0.00,,,0.02,WUHU216HW,2013-01-07 19:59:00,
2013-01-07 12:04:00,45.9,42.3,30.28,ESE,113,0.4,1.8,87,0.00,,,0.02,WUHU216HW,2013-01-07 20:04:00,
2013-01-07 12:09:00,46.3,42.7,30.27,ENE,68,0.7,1.8,87,0.00,,,0.02,WUHU216HW,2013-01-07 20:09:00,
2013-01-07 12:14:00,46.4,42.5,30.27,SSE,158,0.2,1.8,86,0.00,,,0.02,WUHU216HW,2013-01-07 20:14:00,
2013-01-07 12:19:00,46.6,42.7,30.27,ENE,68,1.3,1.6,86,0.00,,,0.02,WUHU216HW,2013-01-07 20:19:00,
2013-01-07 12:25:00,47.0,43.0,30.28,NE,45,0.4,1.3,86,0.00,,,0.02,WUHU216HW,2013-01-07 20:25:00,
2013-01-07 12:30:00,46.8,42.2,30.27,SE,135,0.4,1.1,84,0.00,,,0.02,WUHU216HW,2013-01-07 20:30:00,
2013-01-07 12:35:00,46.8,42.6,30.26,SE,135,0.7,1.1,85,0.00,,,0.02,WUHU216HW,2013-01-07 20:35:00,
2013-01-07 12:40:00,47.0,42.8,30.26,WSW,248,0.0,1.8,85,0.00,,,0.02,WUHU216HW,2013-01-07 20:40:00,
2013-01-07 12:45:00,47.3,43.0,30.26,SE,135,0.4,1.8,85,0.00,,,0.02,WUHU216HW,2013-01-07 20:45:00,
2013-01-07 12:50:00,47.7,43.4,30.25,ENE,68,0.0,1.3,85,0.00,,,0.02,WUHU216HW,2013-01-07 20:50:00,
2013-01-07 12:55:00,47.9,43.6,30.25,SE,135,0.0,1.3,85,0.00,,,0.02,WUHU216HW,2013-01-07 20:55:00,
2013-01-07 13:00:00,48.4,44.1,30.26,NNE,23,0.0,1.6,85,0.00,,,0.02,WUHU216HW,2013-01-07 21:00:00,
2013-01-07 13:05:00,48.6,43.7,30.25,ESE,113,0.4,1.6,83,0.00,,,0.02,WUHU216HW,2013-01-07 21:05:00,
2013-01-07 13:10:00,48.8,43.8,30.25,SSE,158,0.4,1.8,83,0.00,,,0.02,WUHU216HW,2013-01-07 21:10:00,
2013-01-07 13:15:00,48.8,43.8,30.25,SW,225,0.0,1.8,83,0.00,,,0.02,WUHU216HW,2013-01-07 21:15:00,
2013-01-07 13:20:00,48.8,43.5,30.25,ENE,68,0.4,1.8,82,0.00,,,0.02,WUHU216HW,2013-01-07 21:20:00,
2013-01-07 13:25:00,49.0,44.0,30.26,SW,225,1.1,1.8,83,0.00,,,0.02,WUHU216HW,2013-01-07 21:25:00,
2013-01-07 13:30:00,49.3,44.3,30.26,SE,135,0.4,1.6,83,0.00,,,0.02,WUHU216HW,2013-01-07 21:30:00,
2013-01-07 13:36:00,49.3,44.0,30.26,SSE,158,0.4,1.1,82,0.00,,,0.02,WUHU216HW,2013-01-07 21:36:00,
2013-01-07 13:41:00,49.5,44.2,30.26,ESE,113,0.9,0.9,82,0.00,,,0.02,WUHU216HW,2013-01-07 21:41:00,
2013-01-07 13:46:00,49.5,43.6,30.25,SE,135,1.8,1.8,80,0.00,,,0.02,WUHU216HW,2013-01-07 21:46:00,
2013-01-07 13:51:00,49.7,44.4,30.25,ENE,68,0.0,1.8,82,0.00,,,0.02,WUHU216HW,2013-01-07 21:51:00,
2013-01-07 13:56:00,49.7,44.0,30.25,North,0,0.4,0.7,81,0.00,,,0.02,WUHU216HW,2013-01-07 21:56:00,
2013-01-07 14:01:00,50.0,44.4,30.24,SE,135,0.0,0.7,81,0.00,,,0.02,WUHU216HW,2013-01-07 22:01:00,
2013-01-07 14:06:00,49.9,43.9,30.24,ESE,113,0.7,0.7,80,0.00,,,0.02,WUHU216HW,2013-01-07 22:06:00,
2013-01-07 14:11:00,50.0,44.1,30.24,ESE,113,0.0,0.7,80,0.00,,,0.02,WUHU216HW,2013-01-07 22:11:00,
2013-01-07 14:16:00,50.0,44.1,30.24,ESE,113,0.4,0.7,80,0.00,,,0.02,WUHU216HW,2013-01-07 22:16:00,
2013-01-07 14:21:00,50.6,44.6,30.24,SE,135,0.2,0.4,80,0.00,,,0.02,WUHU216HW,2013-01-07 22:21:00,
2013-01-07 14:26:00,50.8,44.8,30.24,ESE,113,0.4,0.4,80,0.00,,,0.02,WUHU216HW,2013-01-07 22:26:00,
2013-01-07 14:31:00,51.1,45.2,30.24,ESE,113,0.4,0.4,80,0.00,,,0.02,WUHU216HW,2013-01-07 22:31:00,
2013-01-07 14:36:00,50.9,44.6,30.24,ESE,113,0.0,0.4,79,0.00,,,0.02,WUHU216HW,2013-01-07 22:36:00,
2013-01-07 14:42:00,50.9,44.3,30.25,SSE,158,0.2,0.7,78,0.00,,,0.02,WUHU216HW,2013-01-07 22:42:00,
2013-01-07 14:47:00,50.6,43.9,30.25,ESE,113,0.4,0.9,78,0.00,,,0.02,WUHU216HW,2013-01-07 22:47:00,
2013-01-07 14:52:00,50.6,43.9,30.25,SE,135,0.0,0.9,78,0.00,,,0.02,WUHU216HW,2013-01-07 22:52:00,
2013-01-07 14:57:00,50.6,43.9,30.24,ENE,68,0.0,0.9,78,0.00,,,0.02,WUHU216HW,2013-01-07 22:57:00,
2013-01-07 15:02:00,50.6,43.9,30.24,SSE,158,0.4,1.3,78,0.00,,,0.02,WUHU216HW,2013-01-07 23:02:00,
2013-01-07 15:07:00,50.8,44.1,30.24,SSE,158,0.4,1.3,78,0.00,,,0.02,WUHU216HW,2013-01-07 23:07:00,
2013-01-07 15:12:00,50.9,44.3,30.24,South,180,0.4,0.4,78,0.00,,,0.02,WUHU216HW,2013-01-07 23:12:00,
2013-01-07 15:17:00,51.1,44.5,30.24,NE,45,0.7,1.1,78,0.00,,,0.02,WUHU216HW,2013-01-07 23:17:00,
2013-01-07 15:22:00,50.9,44.3,30.24,NE,45,1.1,1.1,78,0.00,,,0.02,WUHU216HW,2013-01-07 23:22:00,
2013-01-07 15:27:00,50.8,43.1,30.24,SE,135,1.1,1.3,75,0.00,,,0.02,WUHU216HW,2013-01-07 23:27:00,
2013-01-07 15:32:00,50.6,43.7,30.24,East,90,0.2,1.3,77,0.00,,,0.02,WUHU216HW,2013-01-07 23:32:00,
2013-01-07 15:37:00,50.8,43.5,30.24,East,90,0.7,0.7,76,0.00,,,0.02,WUHU216HW,2013-01-07 23:37:00,
2013-01-07 15:42:00,50.8,43.8,30.23,NNW,338,0.4,0.7,77,0.00,,,0.02,WUHU216HW,2013-01-07 23:42:00,
2013-01-07 15:47:00,50.4,43.5,30.23,ENE,68,0.2,1.6,77,0.00,,,0.02,WUHU216HW,2013-01-07 23:47:00,
2013-01-07 15:52:00,50.4,43.7,30.23,NE,45,0.0,1.6,78,0.00,,,0.02,WUHU216HW,2013-01-07 23:52:00,
2013-01-07 15:57:00,50.2,43.6,30.23,SSE,158,0.4,0.4,78,0.00,,,0.02,WUHU216HW,2013-01-07 23:57:00,
2013-01-07 16:02:00,50.0,43.4,30.23,SSE,158,0.2,0.4,78,0.00,,,0.02,WUHU216HW,2013-01-08 00:02:00,
2013-01-07 16:07:00,49.9,43.2,30.24,SE,135,0.0,0.2,78,0.00,,,0.02,WUHU216HW,2013-01-08 00:07:00,
2013-01-07 16:12:00,49.9,43.2,30.24,SE,135,0.0,0.0,78,0.00,,,0.02,WUHU216HW,2013-01-08 00:12:00,
2013-01-07 16:17:00,49.7,43.0,30.24,SSE,158,0.0,0.2,78,0.00,,,0.02,WUHU216HW,2013-01-08 00:17:00,
2013-01-07 16:23:00,49.7,43.0,30.24,SSE,158,0.0,0.2,78,0.00,,,0.02,WUHU216HW,2013-01-08 00:23:00,
2013-01-07 16:28:00,49.3,43.0,30.24,SSE,158,0.0,0.0,79,0.00,,,0.02,WUHU216HW,2013-01-08 00:28:00,
2013-01-07 16:33:00,49.3,43.0,30.24,SSE,158,0.0,0.0,79,0.00,,,0.02,WUHU216HW,2013-01-08 00:33:00,
2013-01-07 16:38:00,49.0,42.7,30.24,SSE,158,0.0,0.0,79,0.00,,,0.02,WUHU216HW,2013-01-08 00:38:00,
2013-01-07 16:43:00,48.8,42.8,30.23,SSE,158,0.0,0.0,80,0.00,,,0.02,WUHU216HW,2013-01-08 00:43:00,
2013-01-07 16:48:00,48.6,42.7,30.23,SSE,158,0.0,0.0,80,0.00,,,0.02,WUHU216HW,2013-01-08 00:48:00,
2013-01-07 16:53:00,48.2,42.3,30.23,SSE,158,0.0,0.0,80,0.00,,,0.02,WUHU216HW,2013-01-08 00:53:00,
2013-01-07 16:58:00,48.1,42.1,30.23,SSE,158,0.0,0.0,80,0.00,,,0.02,WUHU216HW,2013-01-08 00:58:00,
2013-01-07 17:03:00,47.9,41.9,30.23,SSE,158,0.0,0.0,80,0.00,,,0.02,WUHU216HW,2013-01-08 01:03:00,
2013-01-07 17:08:00,47.5,41.9,30.23,SSE,158,0.0,0.0,81,0.00,,,0.02,WUHU216HW,2013-01-08 01:08:00,
2013-01-07 17:13:00,47.3,41.8,30.23,SSE,158,0.0,0.0,81,0.00,,,0.02,WUHU216HW,2013-01-08 01:13:00,
2013-01-07 17:18:00,47.2,41.7,30.23,SSE,158,0.0,0.0,81,0.00,,,0.02,WUHU216HW,2013-01-08 01:18:00,
2013-01-07 17:23:00,47.2,41.7,30.23,SSE,158,0.0,0.0,81,0.00,,,0.02,WUHU216HW,2013-01-08 01:23:00,
2013-01-07 17:28:00,47.0,41.8,30.23,SSE,158,0.0,0.0,82,0.00,,,0.02,WUHU216HW,2013-01-08 01:28:00,
2013-01-07 17:34:00,46.6,41.5,30.23,SSE,158,0.0,0.0,82,0.00,,,0.02,WUHU216HW,2013-01-08 01:34:00,
2013-01-07 17:39:00,46.4,41.3,30.23,SSE,158,0.0,0.0,82,0.00,,,0.02,WUHU216HW,2013-01-08 01:39:00,
2013-01-07 17:44:00,46.3,41.4,30.23,SSE,158,0.0,0.0,83,0.00,,,0.02,WUHU216HW,2013-01-08 01:44:00,
2013-01-07 17:49:00,46.1,41.2,30.22,SSE,158,0.0,0.0,83,0.00,,,0.02,WUHU216HW,2013-01-08 01:49:00,
2013-01-07 17:54:00,45.9,41.0,30.22,SSE,158,0.0,0.0,83,0.00,,,0.02,WUHU216HW,2013-01-08 01:54:00,
2013-01-07 17:59:00,45.7,41.2,30.23,SSE,158,0.0,0.0,84,0.00,,,0.02,WUHU216HW,2013-01-08 01:59:00,
2013-01-07 18:04:00,45.5,41.1,30.23,SSE,158,0.0,0.0,84,0.00,,,0.02,WUHU216HW,2013-01-08 02:04:00,
2013-01-07 18:09:00,45.4,40.9,30.23,SSE,158,0.0,0.0,84,0.00,,,0.02,WUHU216HW,2013-01-08 02:09:00,
2013-01-07 18:14:00,45.4,40.9,30.23,SSE,158,0.0,0.0,84,0.00,,,0.02,WUHU216HW,2013-01-08 02:14:00,
2013-01-07 18:19:00,45.2,41.0,30.23,SSE,158,0.0,0.0,85,0.00,,,0.02,WUHU216HW,2013-01-08 02:19:00,
2013-01-07 18:24:00,45.0,40.8,30.23,SSE,158,0.0,0.0,85,0.00,,,0.02,WUHU216HW,2013-01-08 02:24:00,
2013-01-07 18:29:00,45.0,40.8,30.23,SSE,158,0.0,0.0,85,0.00,,,0.02,WUHU216HW,2013-01-08 02:29:00,
2013-01-07 18:34:00,44.8,40.6,30.23,SSE,158,0.0,0.0,85,0.00,,,0.02,WUHU216HW,2013-01-08 02:34:00,
2013-01-07 18:40:00,44.6,40.4,30.22,SSE,158,0.0,0.0,85,0.00,,,0.02,WUHU216HW,2013-01-08 02:40:00,
2013-01-07 18:45:00,44.5,40.2,30.22,SSE,158,0.0,0.0,85,0.00,,,0.02,WUHU216HW,2013-01-08 02:45:00,
2013-01-07 18:50:00,44.5,40.2,30.22,SSE,158,0.0,0.0,85,0.00,,,0.02,WUHU216HW,2013-01-08 02:50:00,
2013-01-07 18:55:00,44.3,40.3,30.22,SSE,158,0.0,0.0,86,0.00,,,0.02,WUHU216HW,2013-01-08 02:55:00,
2013-01-07 19:00:00,44.3,40.3,30.22,SSE,158,0.0,0.0,86,0.00,,,0.02,WUHU216HW,2013-01-08 03:00:00,
2013-01-07 19:05:00,44.1,40.1,30.23,SSE,158,0.0,0.0,86,0.00,,,0.02,WUHU216HW,2013-01-08 03:05:00,
2013-01-07 19:10:00,43.9,40.3,30.23,SSE,158,0.0,0.0,87,0.00,,,0.02,WUHU216HW,2013-01-08 03:10:00,
2013-01-07 19:15:00,43.9,40.3,30.23,SSE,158,0.0,0.0,87,0.00,,,0.02,WUHU216HW,2013-01-08 03:15:00,
2013-01-07 19:20:00,43.9,40.3,30.23,SSE,158,0.0,0.0,87,0.00,,,0.02,WUHU216HW,2013-01-08 03:20:00,
2013-01-07 19:25:00,43.7,40.2,30.23,SSE,158,0.0,0.0,87,0.00,,,0.02,WUHU216HW,2013-01-08 03:25:00,
2013-01-07 19:30:00,43.7,40.2,30.23,SSE,158,0.0,0.0,87,0.00,,,0.02,WUHU216HW,2013-01-08 03:30:00,
2013-01-07 19:35:00,43.6,40.0,30.23,SSE,158,0.0,0.0,87,0.00,,,0.02,WUHU216HW,2013-01-08 03:35:00,
2013-01-07 19:40:00,43.6,40.0,30.23,SSE,158,0.2,0.2,87,0.00,,,0.02,WUHU216HW,2013-01-08 03:40:00,
2013-01-07 19:45:00,43.4,39.8,30.23,SSE,158,0.0,0.2,87,0.00,,,0.02,WUHU216HW,2013-01-08 03:45:00,
2013-01-07 19:50:00,43.2,39.6,30.23,SSE,158,0.0,0.0,87,0.00,,,0.02,WUHU216HW,2013-01-08 03:50:00,
2013-01-07 19:56:00,43.2,39.6,30.23,SSE,158,0.0,0.0,87,0.00,,,0.02,WUHU216HW,2013-01-08 03:56:00,
2013-01-07 20:01:00,43.0,39.4,30.23,SSE,158,0.0,0.0,87,0.00,,,0.02,WUHU216HW,2013-01-08 04:01:00,
2013-01-07 20:06:00,43.0,39.4,30.24,SSE,158,0.0,0.0,87,0.00,,,0.02,WUHU216HW,2013-01-08 04:06:00,
2013-01-07 20:11:00,43.0,39.4,30.24,SSE,158,0.0,0.0,87,0.00,,,0.02,WUHU216HW,2013-01-08 04:11:00,
2013-01-07 20:16:00,42.8,39.3,30.24,SSE,158,0.0,0.0,87,0.00,,,0.02,WUHU216HW,2013-01-08 04:16:00,
2013-01-07 20:21:00,42.8,39.3,30.24,SSE,158,0.0,0.0,87,0.00,,,0.02,WUHU216HW,2013-01-08 04:21:00,
2013-01-07 20:26:00,42.8,39.3,30.24,SSE,158,0.0,0.0,87,0.00,,,0.02,WUHU216HW,2013-01-08 04:26:00,
2013-01-07 20:31:00,42.8,39.3,30.24,SSE,158,0.0,0.0,87,0.00,,,0.02,WUHU216HW,2013-01-08 04:31:00,
2013-01-07 20:36:00,42.8,39.3,30.24,SSE,158,0.0,0.0,87,0.00,,,0.02,WUHU216HW,2013-01-08 04:36:00,
2013-01-07 20:41:00,42.8,39.3,30.24,SSE,158,0.0,0.0,87,0.00,,,0.02,WUHU216HW,2013-01-08 04:41:00,
2013-01-07 20:46:00,42.7,39.1,30.24,SSE,158,0.0,0.0,87,0.00,,,0.02,WUHU216HW,2013-01-08 04:46:00,
2013-01-07 20:51:00,42.7,39.3,30.24,SSE,158,0.0,0.0,88,0.00,,,0.02,WUHU216HW,2013-01-08 04:51:00,
2013-01-07 20:56:00,42.7,39.3,30.23,SSE,158,0.4,0.4,88,0.00,,,0.02,WUHU216HW,2013-01-08 04:56:00,
2013-01-07 21:00:00,42.7,39.3,30.22,SSE,158,0.4,0.4,88,0.00,,,0.02,WUHU216HW,2013-01-08 05:00:00,
2013-01-07 21:02:00,42.7,39.3,30.23,SSE,158,0.0,0.4,88,0.00,,,0.02,WUHU216HW,2013-01-08 05:02:00,
2013-01-07 21:03:00,42.5,39.2,30.23,SSE,158,0.0,0.4,88,0.00,,,0.02,WUHU216HW,2013-01-08 05:03:00,
2013-01-07 21:08:00,42.5,39.2,30.23,SSE,158,0.0,0.4,88,0.00,,,0.02,WUHU216HW,2013-01-08 05:08:00,
2013-01-07 21:13:00,42.5,39.2,30.24,SSE,158,0.0,0.0,88,0.00,,,0.02,WUHU216HW,2013-01-08 05:13:00,
2013-01-07 21:18:00,42.5,39.2,30.24,SSE,158,0.0,0.0,88,0.00,,,0.02,WUHU216HW,2013-01-08 05:18:00,
2013-01-07 21:23:00,42.5,39.2,30.24,SSE,158,0.0,0.0,88,0.00,,,0.02,WUHU216HW,2013-01-08 05:23:00,
2013-01-07 21:28:00,42.5,39.2,30.24,SSE,158,0.0,0.0,88,0.00,,,0.02,WUHU216HW,2013-01-08 05:28:00,
2013-01-07 21:34:00,42.5,39.2,30.23,SSE,158,0.0,0.4,88,0.00,,,0.02,WUHU216HW,2013-01-08 05:34:00,
2013-01-07 21:39:00,42.5,39.2,30.24,SSE,158,0.0,0.4,88,0.00,,,0.02,WUHU216HW,2013-01-08 05:39:00,
2013-01-07 21:44:00,42.5,39.2,30.24,SSE,158,0.0,0.0,88,0.00,,,0.02,WUHU216HW,2013-01-08 05:44:00,
2013-01-07 21:49:00,42.5,39.2,30.24,SSE,158,0.0,0.0,88,0.00,,,0.02,WUHU216HW,2013-01-08 05:49:00,
2013-01-07 21:54:00,42.5,39.5,30.24,SSE,158,0.0,0.0,89,0.00,,,0.02,WUHU216HW,2013-01-08 05:54:00,
2013-01-07 21:59:00,42.5,39.5,30.24,SSE,158,0.0,0.0,89,0.00,,,0.02,WUHU216HW,2013-01-08 05:59:00,
2013-01-07 22:04:00,42.3,39.3,30.24,SSE,158,0.0,0.0,89,0.00,,,0.02,WUHU216HW,2013-01-08 06:04:00,
2013-01-07 22:09:00,42.3,39.3,30.24,SSE,158,0.0,0.0,89,0.00,,,0.02,WUHU216HW,2013-01-08 06:09:00,
2013-01-07 22:14:00,42.3,39.3,30.25,SSE,158,0.0,0.0,89,0.00,,,0.02,WUHU216HW,2013-01-08 06:14:00,
2013-01-07 22:19:00,42.3,39.3,30.24,SSE,158,0.2,0.2,89,0.00,,,0.02,WUHU216HW,2013-01-08 06:19:00,
2013-01-07 22:24:00,42.1,39.2,30.25,SSE,158,0.0,0.2,89,0.00,,,0.02,WUHU216HW,2013-01-08 06:24:00,
2013-01-07 22:29:00,42.1,39.2,30.25,SSE,158,0.0,0.0,89,0.00,,,0.02,WUHU216HW,2013-01-08 06:29:00,
2013-01-07 22:34:00,42.1,39.2,30.25,SSE,158,0.0,0.0,89,0.00,,,0.02,WUHU216HW,2013-01-08 06:34:00,
2013-01-07 22:39:00,42.1,39.2,30.25,SSE,158,0.0,0.0,89,0.00,,,0.02,WUHU216HW,2013-01-08 06:39:00,
2013-01-07 22:44:00,41.9,39.0,30.25,SSE,158,0.0,0.0,89,0.00,,,0.02,WUHU216HW,2013-01-08 06:44:00,
2013-01-07 22:49:00,41.8,38.8,30.25,SSE,158,0.0,0.0,89,0.00,,,0.02,WUHU216HW,2013-01-08 06:49:00,
2013-01-07 22:55:00,41.8,38.8,30.25,SSE,158,0.0,0.0,89,0.00,,,0.02,WUHU216HW,2013-01-08 06:55:00,
2013-01-07 23:00:00,41.6,38.6,30.26,SSE,158,0.0,0.0,89,0.00,,,0.02,WUHU216HW,2013-01-08 07:00:00,
2013-01-07 23:05:00,41.4,38.4,30.26,SSE,158,0.0,0.0,89,0.00,,,0.02,WUHU216HW,2013-01-08 07:05:00,
2013-01-07 23:10:00,41.4,38.4,30.26,SSE,158,0.0,0.0,89,0.00,,,0.02,WUHU216HW,2013-01-08 07:10:00,
2013-01-07 23:15:00,41.4,38.4,30.26,SSE,158,0.0,0.0,89,0.00,,,0.02,WUHU216HW,2013-01-08 07:15:00,
2013-01-07 23:20:00,41.4,38.4,30.26,SSE,158,0.0,0.0,89,0.00,,,0.02,WUHU216HW,2013-01-08 07:20:00,
2013-01-07 23:25:00,41.4,38.4,30.26,SSE,158,0.2,0.2,89,0.00,,,0.02,WUHU216HW,2013-01-08 07:25:00,
2013-01-07 23:30:00,41.2,38.3,30.26,SSE,158,0.0,0.2,89,0.00,,,0.02,WUHU216HW,2013-01-08 07:30:00,
2013-01-07 23:35:00,41.2,38.3,30.25,SSE,158,0.0,0.0,89,0.00,,,0.02,WUHU216HW,2013-01-08 07:35:00,
2013-01-07 23:40:00,41.2,38.3,30.25,SSE,158,0.0,0.0,89,0.00,,,0.02,WUHU216HW,2013-01-08 07:40:00,
2013-01-07 23:45:00,41.2,38.3,30.25,SSE,158,0.0,0.0,89,0.00,,,0.02,WUHU216HW,2013-01-08 07:45:00,
2013-01-07 23:50:00,41.0,38.1,30.25,SSE,158,0.0,0.0,89,0.00,,,0.02,WUHU216HW,2013-01-08 07:50:00,
2013-01-07 23:55:00,41.0,38.3,30.26,SSE,158,0.0,0.0,90,0.00,,,0.02,WUHU216HW,2013-01-08 07:55:00,